Aurora, NE

8:43 AM CDT on July 20, 2017 (GMT -0500)
Aurora Municipal

Weather History for KAUH - February, 2012

Change the Weather History Date:

Tuesday, February 14, 2012

  Actual Average Record
Temperature  
Mean Temperature 26 °F -  
Max Temperature 38 °F 40 °F 74 °F (1967)
Min Temperature 15 °F 19 °F -5 °F (2007)
Degree Days  
Heating Degree Days 38    
Moisture  
Dew Point 27 °F    
Average Humidity 81    
Maximum Humidity 96    
Minimum Humidity 71    
Precipitation  
Precipitation 0.00 in - - ()
Sea Level Pressure  
Sea Level Pressure 29.76 in    
Wind  
Wind Speed 6 mph (SW)    
Max Wind Speed 10 mph    
Max Gust Speed -    
Visibility 9 miles    
Events      
Averages and records for this station are not official NWS values.
T = Trace of Precipitation, MM = Missing Value Source: NWS Daily Summary

Daily Weather History Graph

Daily Weather History Graph

Search for Another Location

Airport or City:

Trip Planner

Search our weather history database for the weather conditions in past years. The results will help you decide how hot, cold, wet, or windy it might be!

Date:

Astronomy

Feb. 14, 2012 Rise Set
Actual Time 7:28 AM CST 6:04 PM CST
Civil Twilight 6:59 AM CST 6:33 PM CST
Nautical Twilight 6:27 AM CST 7:05 PM CST
Astronomical Twilight 5:55 AM CST 7:37 PM CST
Moon 1:15 AM CST (2/14) 11:10 AM CST (2/14)
Length of Visible Light 11h 33m
Length of Day
10h 36m
Waning Gibbous, 50% of the Moon is Illuminated
Feb 14
Waning Gibbous
Feb 21
New
Feb 29
First Quarter
Mar 8
Full
Mar 14
Last Quarter

Hourly Weather History & Observations

Time (CST) Temp. Windchill Dew Point Humidity Pressure Visibility Wind Dir Wind Speed Gust Speed Precip Events Conditions
12:15 AM - - - N/A% 29.76 in 5.0 mi West 4.6 mph - N/A   Haze
12:35 AM - - - N/A% 29.76 in 7.0 mi WSW 4.6 mph - N/A   Clear
12:55 AM - - - N/A% 29.76 in 7.0 mi WSW 5.8 mph - N/A   Clear
1:15 AM - - - N/A% 29.76 in 7.0 mi WSW 4.6 mph - N/A   Clear
1:35 AM - - - N/A% 29.75 in 7.0 mi WSW 4.6 mph - N/A   Clear
1:55 AM - - - N/A% 29.76 in 7.0 mi WSW 6.9 mph - N/A   Clear
2:15 AM - - - N/A% 29.76 in 7.0 mi WSW 5.8 mph - N/A   Clear
2:35 AM - - - N/A% 29.77 in 7.0 mi WSW 8.1 mph - N/A   Clear
3:15 AM - - - N/A% 29.76 in 10.0 mi WSW 3.5 mph - N/A   Clear
3:35 AM - - - N/A% 29.75 in 10.0 mi WSW 5.8 mph - N/A   Clear
3:55 AM - - - N/A% 29.75 in 10.0 mi WSW 4.6 mph - N/A   Clear
4:15 AM - - - N/A% 29.74 in 10.0 mi WSW 5.8 mph - N/A   Clear
4:35 AM - - - N/A% 29.74 in 10.0 mi WSW 5.8 mph - N/A   Clear
4:55 AM - - - N/A% 29.76 in 7.0 mi SW 6.9 mph - N/A   Clear
5:15 AM - - - N/A% 29.76 in 10.0 mi WSW 4.6 mph - N/A   Clear
5:35 AM - - - N/A% 29.76 in 10.0 mi WSW 5.8 mph - N/A   Clear
5:55 AM - - - N/A% 29.76 in 10.0 mi WSW 4.6 mph - N/A   Clear
6:15 AM - - - N/A% 29.75 in 10.0 mi WSW 5.8 mph - N/A   Clear
6:35 AM - - - N/A% 29.75 in 7.0 mi SW 6.9 mph - N/A   Clear
6:55 AM - - - N/A% 29.75 in 7.0 mi SW 5.8 mph - N/A   Clear
7:15 AM - - - N/A% 29.76 in 7.0 mi SW 5.8 mph - N/A   Clear
7:35 AM - - - N/A% 29.75 in 7.0 mi SW 8.1 mph - N/A   Clear
7:55 AM - - - N/A% 29.76 in 7.0 mi WSW 6.9 mph - N/A   Clear
8:15 AM 15.3 °F 5.4 °F 13.1 °F 91% 29.77 in 7.0 mi SW 6.9 mph - N/A   Clear
8:35 AM 16.0 °F 6.3 °F 13.8 °F 91% 29.77 in 7.0 mi SW 6.9 mph - N/A   Clear
8:55 AM 18.3 °F 11.5 °F 16.3 °F 92% 29.77 in 7.0 mi WSW 4.6 mph - N/A   Clear
9:15 AM 19.8 °F 11.9 °F 17.4 °F 91% 29.77 in 7.0 mi WSW 5.8 mph - N/A   Clear
9:35 AM 21.6 °F 13.0 °F 19.0 °F 90% 29.77 in 7.0 mi WSW 6.9 mph - N/A   Clear
9:55 AM 24.3 °F 16.3 °F 21.0 °F 87% 29.78 in 7.0 mi SW 6.9 mph - N/A   Clear
10:15 AM 25.5 °F 15.5 °F 20.8 °F 82% 29.78 in 7.0 mi SW 10.4 mph - N/A   Clear
10:35 AM 27.9 °F 19.1 °F 22.6 °F 81% 29.78 in 7.0 mi WSW 9.2 mph - N/A   Clear
10:55 AM 29.7 °F 21.3 °F 23.7 °F 79% 29.79 in 10.0 mi WSW 9.2 mph - N/A   Clear
11:15 AM 30.6 °F 21.8 °F 24.1 °F 77% 29.79 in 10.0 mi WSW 10.4 mph - N/A   Clear
11:35 AM 32.0 °F 26.4 °F 25.3 °F 76% 29.78 in 10.0 mi WSW 5.8 mph - N/A   Clear
11:55 AM 33.6 °F 28.4 °F 27.1 °F 77% 29.78 in 10.0 mi West 5.8 mph - N/A   Scattered Clouds
12:15 PM 34.7 °F 28.1 °F 27.5 °F 75% 29.77 in 10.0 mi West 8.1 mph - N/A   Mostly Cloudy
12:35 PM 35.6 °F 29.9 °F 28.2 °F 75% 29.77 in 10.0 mi West 6.9 mph - N/A   Mostly Cloudy
12:55 PM 36.1 °F 31.4 °F 29.3 °F 76% 29.76 in 10.0 mi WSW 5.8 mph - N/A   Scattered Clouds
1:15 PM 36.5 °F 29.7 °F 28.4 °F 72% 29.76 in 10.0 mi SW 9.2 mph - N/A   Clear
1:35 PM 37.4 °F 30.8 °F 29.1 °F 72% 29.76 in 10.0 mi SW 9.2 mph - N/A   Mostly Cloudy
1:55 PM 37.0 °F 30.4 °F 29.3 °F 74% 29.76 in 10.0 mi SW 9.2 mph - N/A   Scattered Clouds
2:15 PM 37.4 °F 32.8 °F 30.0 °F 75% 29.75 in 10.0 mi SW 5.8 mph - N/A   Clear
2:35 PM 37.6 °F 33.1 °F 30.2 °F 75% 29.75 in 10.0 mi SW 5.8 mph - N/A   Clear
2:55 PM 37.4 °F 32.1 °F 30.0 °F 75% 29.75 in 10.0 mi SW 6.9 mph - N/A   Clear
3:15 PM 37.8 °F 33.3 °F 30.0 °F 74% 29.76 in 10.0 mi SW 5.8 mph - N/A   Clear
3:35 PM 38.5 °F 32.7 °F 29.7 °F 71% 29.75 in 10.0 mi SSW 8.1 mph - N/A   Clear
3:55 PM 38.1 °F 32.9 °F 29.7 °F 72% 29.76 in 10.0 mi South 6.9 mph - N/A   Clear
4:15 PM 38.1 °F 31.7 °F 31.1 °F 76% 29.76 in 10.0 mi SSW 9.2 mph - N/A   Mostly Cloudy
4:35 PM 36.7 °F 30.5 °F 30.9 °F 80% 29.76 in 10.0 mi SW 8.1 mph - N/A   Mostly Cloudy
4:55 PM 36.7 °F 32.0 °F 31.1 °F 80% 29.76 in 10.0 mi SW 5.8 mph - N/A   Overcast
5:15 PM 36.5 °F 33.9 °F 31.1 °F 81% 29.75 in 10.0 mi WSW 3.5 mph - N/A   Mostly Cloudy
5:35 PM 36.7 °F 32.9 °F 30.7 °F 79% 29.76 in 10.0 mi SW 4.6 mph - N/A   Scattered Clouds
5:55 PM 35.6 °F 31.7 °F 30.6 °F 82% 29.77 in 10.0 mi SSW 4.6 mph - N/A   Mostly Cloudy
6:15 PM 35.4 °F 32.6 °F 30.9 °F 84% 29.77 in 10.0 mi WSW 3.5 mph - N/A   Mostly Cloudy
6:35 PM 35.8 °F - 31.1 °F 83% 29.78 in 10.0 mi Calm Calm - N/A   Overcast
6:55 PM 34.2 °F - 30.7 °F 87% 29.78 in 10.0 mi Calm Calm - N/A   Overcast
7:15 PM 33.1 °F - 30.2 °F 89% 29.78 in 10.0 mi Calm Calm - N/A   Scattered Clouds
7:35 PM 32.0 °F 26.4 °F 30.0 °F 92% 29.79 in 10.0 mi SSE 5.8 mph - N/A   Clear
7:55 PM 33.3 °F 30.2 °F 30.9 °F 91% 29.79 in 10.0 mi South 3.5 mph - N/A   Clear
8:15 PM 32.7 °F - 30.2 °F 90% 29.78 in 10.0 mi Calm Calm - N/A   Clear
8:35 PM 31.3 °F - 30.4 °F 96% 29.78 in 7.0 mi Calm Calm - N/A   Clear
8:55 PM 31.3 °F - 30.4 °F 96% 29.79 in 7.0 mi Calm Calm - N/A   Clear
9:15 PM 30.2 °F - 29.3 °F 96% 29.79 in 5.0 mi Calm Calm - N/A   Clear
9:35 PM 30.2 °F 26.7 °F 29.5 °F 97% 29.80 in 7.0 mi SSE 3.5 mph - N/A   Clear
9:55 PM 31.8 °F 25.4 °F 30.9 °F 96% 29.80 in 7.0 mi SSE 6.9 mph - N/A   Clear
10:15 PM 32.0 °F 24.8 °F 29.3 °F 90% 29.80 in 10.0 mi SSE 8.1 mph - N/A   Clear
10:35 PM 30.9 °F 26.2 °F 27.9 °F 88% 29.80 in 10.0 mi SE 4.6 mph - N/A   Clear
10:55 PM 28.4 °F 23.3 °F 27.3 °F 96% 29.80 in 7.0 mi SE 4.6 mph - N/A   Clear
11:15 PM 28.4 °F 24.6 °F 27.5 °F 96% 29.80 in 5.0 mi SE 3.5 mph - N/A   Clear
11:35 PM 28.2 °F 23.1 °F 27.5 °F 97% 29.80 in 4.0 mi SE 4.6 mph - N/A   Clear
11:55 PM 25.7 °F 19.0 °F 25.2 °F 98% 29.79 in 2.0 mi SE 5.8 mph - N/A   Clear